AJISAI (EGS) (16908 NORAD) Tracking and Keplerian Element Data

This shows tracking and keplerian element data for the satellite.

Feedback or suggestion? Click here.




ElementValue
Catalog16908
NameAJISAI (EGS)
Epoch Orbit27949
Epoch Day15.89959491
Epoch Year2022
RAAN68.1217
Inclination50.0104
Eccentricity0.0011302
Argument of Perigee34.4089
Mean Anonmoly319.6816
Mean Motion12.44495103
Decay Rate-9E-07
L11 16908U 86061A 22015.89959491 -.00000090 00000+0 53570-4 0 9992
L22 16908 50.0104 68.1217 0011302 34.4089 319.6816 12.44495103279494

Live tracking and technical data element details for AJISAI (EGS) (NORAD 16908). AJISAI (EGS) can be tracked NOW for your location showing map with azimuth and elevation plus other details from your city location.

Track the satellite on the map from your city or location and see movement details for azimuth, elevation, latitude, longitude, range, height, and movement on the map or in text.







IsCatalogInMostPopularTable: catalog: 16908, numindb: 686
Update: records affected: 1



GetName: 16908 AJISAI (EGS)

Hit Count: updated at: Mon, 17 Jan 2022 00:59:10 GMT